Gage, OK

3:06 PM CDT on April 27, 2017 (GMT -0500)
Gage

Weather History for KGAG - March, 2013

Change the Weather History Date:

Friday, March 22, 2013

  Actual Average Record
Temperature  
Mean Temperature 42 °F -  
Max Temperature 53 °F 63 °F 87 °F (1951)
Min Temperature 32 °F 34 °F 13 °F (1955)
Degree Days  
Heating Degree Days 23    
Moisture  
Dew Point 32 °F    
Average Humidity 82    
Maximum Humidity 100    
Minimum Humidity 47    
Precipitation  
Precipitation 0.00 in - - ()
Sea Level Pressure  
Sea Level Pressure 29.85 in    
Wind  
Wind Speed 12 mph (NE)    
Max Wind Speed 21 mph    
Max Gust Speed 26 mph    
Visibility 8 miles    
Events Rain , Snow    
Averages and records for this station are not official NWS values.
T = Trace of Precipitation, MM = Missing Value Source: NWS Daily Summary

Daily Weather History Graph

Daily Weather History Graph

Search for Another Location

Airport or City:

Trip Planner

Search our weather history database for the weather conditions in past years. The results will help you decide how hot, cold, wet, or windy it might be!

Date:

Astronomy

Mar. 22, 2013 Rise Set
Actual Time 7:39 AM CDT 7:52 PM CDT
Civil Twilight 7:13 AM CDT 8:18 PM CDT
Nautical Twilight 6:43 AM CDT 8:48 PM CDT
Astronomical Twilight 6:13 AM CDT 9:19 PM CDT
Moon 3:28 PM CDT (3/22) 4:33 AM CDT (3/22)
Length of Visible Light 13h 04m
Length of Day
12h 13m
Waxing Gibbous, 77% of the Moon is Illuminated
Mar 22
Waxing Gibbous
Mar 27
Full
Apr 2
Last Quarter
Apr 10
New
Apr 18
First Quarter

Hourly Weather History & Observations

Time (CDT) Temp. Windchill Dew Point Humidity Pressure Visibility Wind Dir Wind Speed Gust Speed Precip Events Conditions
12:17 AM 35.6 °F 26.2 °F 30.2 °F 81% 29.73 in 10.0 mi NE 15.0 mph - N/A   Mostly Cloudy
12:53 AM 35.1 °F 25.2 °F 28.9 °F 78% 29.74 in 10.0 mi NE 16.1 mph - N/A   Overcast
1:14 AM 35.6 °F 26.2 °F 28.4 °F 75% 29.78 in 10.0 mi NNE 15.0 mph 24.2 mph N/A   Overcast
1:53 AM 35.1 °F 23.8 °F 30.0 °F 82% 29.80 in 10.0 mi NNE 20.7 mph 26.5 mph N/A   Overcast
2:22 AM 33.8 °F 23.9 °F 32.0 °F 93% 29.83 in 2.0 mi North 15.0 mph - 0.00 in Snow Light Snow
2:31 AM 33.8 °F 23.5 °F 33.8 °F 100% 29.83 in 1.8 mi NNE 16.1 mph 23.0 mph 0.00 in Snow Light Snow
2:51 AM 33.8 °F 24.8 °F 33.8 °F 100% 29.83 in 2.5 mi NNE 12.7 mph 20.7 mph 0.00 in Rain Light Rain
2:53 AM 34.0 °F 23.4 °F 33.1 °F 96% 29.82 in 3.0 mi NNE 17.3 mph 25.3 mph 0.00 in Rain Light Freezing Rain
3:01 AM 33.8 °F 24.3 °F 32.0 °F 93% 29.84 in 2.5 mi NNE 13.8 mph 25.3 mph 0.00 in Snow Light Snow
3:19 AM 33.8 °F 24.8 °F 32.0 °F 93% 29.84 in 3.0 mi NNE 12.7 mph - 0.00 in Rain Light Freezing Rain
3:27 AM 33.8 °F 23.5 °F 32.0 °F 93% 29.84 in 5.0 mi NE 16.1 mph - 0.00 in Rain Light Freezing Rain
3:35 AM 33.8 °F 24.8 °F 32.0 °F 93% 29.84 in 6.0 mi NNE 12.7 mph - 0.00 in Rain Light Freezing Rain
3:53 AM 34.0 °F 25.0 °F 32.0 °F 92% 29.82 in 8.0 mi NNE 12.7 mph - 0.00 in   Overcast
3:59 AM 33.8 °F 25.3 °F 33.8 °F 100% 29.84 in 8.0 mi NNE 11.5 mph - N/A   Overcast
4:53 AM 34.0 °F 25.0 °F 32.0 °F 92% 29.82 in 9.0 mi NE 12.7 mph - N/A   Overcast
5:00 AM 33.8 °F 25.3 °F 32.0 °F 93% 29.83 in 8.0 mi NE 11.5 mph - N/A   Overcast
5:53 AM 33.1 °F 26.1 °F 32.0 °F 96% 29.83 in 8.0 mi NNE 8.1 mph - N/A   Overcast
6:22 AM 33.8 °F 27.7 °F 32.0 °F 93% 29.85 in 9.0 mi NE 6.9 mph - N/A   Overcast
6:53 AM 33.1 °F 26.1 °F 32.0 °F 96% 29.84 in 8.0 mi NNE 8.1 mph - N/A   Overcast
7:53 AM 33.1 °F 24.9 °F 30.9 °F 92% 29.88 in 7.0 mi NNE 10.4 mph - N/A   Overcast
8:53 AM 32.0 °F 24.2 °F 30.9 °F 96% 29.91 in 5.0 mi NNE 9.2 mph - N/A   Overcast
9:53 AM 33.1 °F 24.9 °F 30.9 °F 92% 29.94 in 5.0 mi NNE 10.4 mph - N/A   Overcast
10:53 AM 33.1 °F 25.5 °F 30.9 °F 92% 29.95 in 5.0 mi North 9.2 mph - N/A   Overcast
11:53 AM 37.0 °F 31.6 °F 32.0 °F 82% 29.96 in 7.0 mi NE 6.9 mph - N/A   Overcast
12:05 PM 37.4 °F 33.8 °F 32.0 °F 81% 29.93 in 8.0 mi NE 4.6 mph - N/A   Overcast
12:53 PM 42.1 °F 37.1 °F 34.0 °F 73% 29.94 in 10.0 mi NE 8.1 mph - N/A   Overcast
1:20 PM 44.6 °F 40.7 °F 33.8 °F 66% 29.90 in 10.0 mi NE 6.9 mph - N/A   Partly Cloudy
1:53 PM 46.9 °F - 33.1 °F 59% 29.90 in 10.0 mi Variable 3.5 mph - N/A   Clear
2:53 PM 48.9 °F - 33.1 °F 54% 29.86 in 10.0 mi Variable 5.8 mph - N/A   Clear
3:53 PM 48.9 °F - 33.1 °F 54% 29.83 in 10.0 mi Variable 4.6 mph - N/A   Clear
4:53 PM 52.0 °F - 32.0 °F 47% 29.81 in 10.0 mi NE 3.5 mph - N/A   Clear
5:53 PM 52.0 °F - 33.1 °F 49% 29.80 in 10.0 mi ENE 8.1 mph - N/A   Clear
6:53 PM 52.0 °F - 33.1 °F 49% 29.80 in 10.0 mi ENE 8.1 mph - N/A   Clear
7:53 PM 46.0 °F 41.9 °F 34.0 °F 63% 29.82 in 10.0 mi East 8.1 mph - N/A   Clear
8:53 PM 41.0 °F 35.8 °F 34.0 °F 76% 29.84 in 10.0 mi ESE 8.1 mph - N/A   Clear
9:53 PM 39.9 °F 32.5 °F 34.0 °F 79% 29.86 in 10.0 mi SE 12.7 mph - N/A   Clear
10:53 PM 37.9 °F 32.1 °F 33.1 °F 83% 29.88 in 10.0 mi ESE 8.1 mph - N/A   Clear
11:53 PM 37.0 °F 31.6 °F 33.1 °F 86% 29.87 in 10.0 mi ESE 6.9 mph - N/A   Clear